Location: ???
(60.6398°N, 46.9067°E)
Time: 18:26:56
(UTC+00:00)

CZ-4B R/B - Pass Details

Date: 08 December 2019
Orbit: 393 x 468 km, 97.6° (Epoch: 16 January)

Event Time Altitude Azimuth Distance (km) Brightness Sun altitude
Exits shadow 14:25:18 10° 3° (N) 1,635 4.0 -17.4°
Maximum altitude 14:28:28 33° 298° (WNW) 820 3.1 -17.8°
Drops below altitude 10° 14:31:39 10° 234° (SW) 1,636 5.3 -18.2°
Sets 14:33:49 0° 224° (SW) 2,504 6.2 -18.4°
